Regional Weather Roundup
Issued by NWS

Home | Current Version | Previous Version | Graphics & Text | Print | Product List | Glossary On
Versions: 1 2 3 4 5 6 7 8 9 10 11 12 13 14 15 16 17 18 19 20 21 22 23 24 25 26 27 28 29 30 31 32 33 34 35 36 37 38 39 40 41 42 43 44 45 46 47 48 49 50
000
ASUS43 KDTX 120110
RWRMI
MICHIGAN HOURLY REGIONAL WEATHER ROUNDUP
NATIONAL WEATHER SERVICE DETROIT/PONTIAC MI
900 PM EDT FRI JUL 11 2014

NOTE: "FAIR" INDICATES FEW OR NO CLOUDS BELOW 12,000 FEET WITH NO
SIGNIFICANT WEATHER AND/OR OBSTRUCTION TO VISIBILITY.

MIZ047>049-052>055-059>063-066>070-074>076-081>083-120200-
SOUTHEAST LOWER MICHIGAN

CITY           SKY/WX    TMP DP  RH WIND       PRES   REMARKS
ADRIAN         MOCLDY    74  58  57 SE5       30.17R
ALMA           PTCLDY    71  59  66 SW3       30.15R
ANN ARBOR      CLOUDY    71  58  63 SE5       30.17R
BAD AXE        CLOUDY    70  60  70 CALM      30.16S
CARO           MOCLDY    73  66  78 CALM      30.15S
DETROIT CITY   MOCLDY    76  54  46 S7        30.17R
DETROIT        MOCLDY    73  56  54 SE3       30.18R
FLINT          MOCLDY    74  61  63 S6        30.15F
GROSSE ILE     MOCLDY    72  61  68 CALM      30.16R
HILLSDALE      CLOUDY    72  60  65 CALM      30.17S
HOWELL         CLOUDY    73  58  60 S6        30.15F

CITY           SKY/WX    TMP DP  RH WIND       PRES   REMARKS
JACKSON        CLOUDY    74  59  59 SE6       30.15F
LAMBERTVILLE   MOCLDY    73  57  56 E3        30.17S
LANSING        MOCLDY    74  57  55 S5        30.15F
LAPEER         FAIR      72  59  64 S3        30.16F
MASON          CLOUDY    71  63  76 CALM      30.15F
MONROE         MOCLDY    72  61  68 CALM      30.15S
MT. CLEMENS    MOCLDY    71  59  66 S8        30.16R
PONTIAC        CLOUDY    75  56  51 S8        30.16S
PORT HOPE        N/A     69  59  70 SE6       30.14F
PORT HURON     MOCLDY    68  63  83 CALM      30.17S
TRI CITIES     MOCLDY    76  58  53 S3        30.14F
TROY           MOCLDY    75  54  46 SW7       30.18R
SAGINAW HB     MOCLDY    73  59  60 S3        30.14S
$$
MIZ043>046-050>051-056>058-064>065-071>073-077>080-120200-
SOUTHWEST LOWER MICHIGAN

CITY           SKY/WX    TMP DP  RH WIND       PRES   REMARKS
BATTLE CREEK   CLOUDY    75  60  59 S3        30.16R
BENTON HARBOR  CLOUDY    69  63  81 CALM      30.15R
BIG RAPIDS     CLOUDY    72  60  65 W7        30.14S
COLDWATER      CLOUDY    72  64  76 CALM      30.15S
FREMONT        FAIR      71  56  59 CALM      30.15S
HOLLAND        CLOUDY    72  63  73 CALM      30.16R
GRAND RAPIDS   MOCLDY    75  60  59 W6        30.15R
IONIA          FAIR      75  59  57 S3        30.13S
KALAMAZOO      CLOUDY    75  59  57 S5        30.15R
LUDINGTON      MOCLDY    71  57  62 S5        30.14S
MARSHALL       CLOUDY    71  62  72 CALM      30.14F
MOUNT PLEASANT PTCLDY    70  61  72 CALM      30.14R
MUSKEGON       CLOUDY    73  55  53 S3        30.14S
SOUTH HAVEN    CLOUDY    69  64  84 CALM      30.15R
$$
MIZ016>042-120200-
NORTHERN LOWER MICHIGAN

CITY           SKY/WX    TMP DP  RH WIND       PRES   REMARKS
ALPENA         CLOUDY    74  56  53 S6        30.12S
BEAVER ISLAND  CLOUDY    68  54  60 SW12G18   30.10R
BELLAIRE       CLOUDY    72  62  70 CALM      30.11S
CADILLAC       CLOUDY    71  60  69 SW8       30.15R
CHARLEVOIX     CLOUDY    72  56  58 SW5       30.13F
FRANKFORT      CLOUDY    71  50  47 S6        30.12S
GAYLORD        CLOUDY    71  59  65 S5        30.14R
GRAYLING       CLOUDY    73  56  55 S3        30.15R
HARBOR SPRINGS CLOUDY    66  60  81 CALM      30.10S
HOUGHTON LAKE  MOCLDY    73  57  57 S8        30.15R
MANISTEE       CLOUDY    72  54  53 S3        30.14S
OSCODA         CLOUDY    69  57  65 S3        30.13F
PELLSTON       CLOUDY    69  63  81 CALM      30.11S
ROGERS CITY    CLOUDY    69  66  88 S3        30.12S
TRAVERSE CITY  CLOUDY    75  55  49 SW8       30.11R
$$
MIZ007>008-015-120200-
EASTERN UPPER MICHIGAN

CITY           SKY/WX    TMP DP  RH WIND       PRES   REMARKS
KINROSS        CLOUDY    64  59  82 S3        30.12R
MACKINAC ISLAN CLOUDY    63  57  79 CALM      30.11S
NEWBERRY       CLOUDY    61  54  78 CALM      30.09R
S. S. MARIE    CLOUDY    64  59  83 SE3       30.11S
MUNISING         N/A     71  58  63 S7        30.02R
$$
MIZ004>006-011>014-085-120200-
CENTRAL UPPER MICHIGAN

CITY           SKY/WX    TMP DP  RH WIND       PRES   REMARKS
MANISTIQUE     CLOUDY    58  53  83 SW9       30.07F
ESCANABA       CLOUDY    68  55  64 S14       30.05S
MENOMINEE      CLOUDY    73  57  56 S10       30.05F
SAWYER-GWINN   MOCLDY    72  61  68 SW12G18   30.03F
$$
MIZ001>003-009>011-084-120200-
WESTERN UPPER MICHIGAN

CITY           SKY/WX    TMP DP  RH WIND       PRES   REMARKS
IRON MOUNTAIN  CLOUDY    72  55  55 S8        30.03F
HOUGHTON       CLOUDY    69  63  81 SW6       29.95F
COPPER HARBOR    N/A     68  63  84 W7        29.92F
$$

ABBREVIATIONS USED IN REMARKS
   TC - TEMPERATURE IN CELSIUS
  WCI - WIND CHILL INDEX
   HX - HEAT INDEX
  VSB - VISIBILITY



USA.gov is the U.S. government's official web portal to all federal, state and local government web resources and services.